Weather History for Jacksonville, TX

Change the Weather History Date:

Thursday, May 23, 2013

  Actual Average (KTYR) Record (KTYR)
Temperature  
Mean Temperature 76 °F 75 °F  
Max Temperature 85 °F 84 °F 98 °F (1925)
Min Temperature 68 °F 66 °F 47 °F (1963)
Degree Days  
Heating Degree Days 0 0  
Month to date heating degree days 6  
Since 1 July heating degree days 2268  
Cooling Degree Days 12 10  
Month to date cooling degree days 170  
Year to date cooling degree days 282  
Growing Degree Days 26 (Base 50)    
Moisture  
Dew Point 69 °F    
Average Humidity 80    
Maximum Humidity 100    
Minimum Humidity 55    
Precipitation  
Precipitation 0.00 in 0.14 in 2.92 in (1952)
Month to date precipitation 3.43  
Year to date precipitation 17.59  
Snow  
Snow 0.00 in - - ()
Month to date snowfall  
Since 1 July snowfall  
Snow Depth -    
Sea Level Pressure  
Sea Level Pressure 30.02 in    
Wind  
Wind Speed 4 mph (SE)    
Max Wind Speed 12 mph    
Max Gust Speed -    
Visibility 8 miles    
Events Fog    
T = Trace of Precipitation, MM = Missing Value Source: NWS Daily Summary

Daily Weather History Graph

Daily Weather History Graph

Search for Another Location

Airport:

Trip Planner

Search our weather history database for the weather conditions in past years. The results will help you decide how hot, cold, wet, or windy it might be!

Date:

Astronomy

May. 23, 2013 Rise Set
Actual Time 6:19 AM CDT 8:16 PM CDT
Civil Twilight 5:51 AM CDT 8:43 PM CDT
Nautical Twilight 5:18 AM CDT 9:17 PM CDT
Astronomical Twilight 4:43 AM CDT 9:52 PM CDT
Moon 6:54 PM CDT (5/23) 4:58 AM CDT (5/23)
Length of Visible Light 14h 52m
Length of Day
13h 57m
Waxing Gibbous, 97% of the Moon is Illuminated
May 23
Waxing Gibbous
May 24
Full
May 31
Last Quarter
Jun 8
New
Jun 16
First Quarter

Hourly Weather History & Observations

Time (CDT) Temp. Heat Index Dew Point Humidity Pressure Visibility Wind Dir Wind Speed Gust Speed Precip Events Conditions
12:15 AM 71.8 °F - 68.0 °F 88% 29.97 in 10.0 mi Calm Calm - N/A   Clear
12:35 AM 71.6 °F - 68.2 °F 89% 29.97 in 10.0 mi Calm Calm - N/A   Clear
12:55 AM 70.7 °F - 68.5 °F 93% 29.97 in 7.0 mi Calm Calm - N/A   Clear
1:15 AM 70.7 °F - 68.9 °F 94% 29.97 in 7.0 mi Calm Calm - N/A   Clear
1:35 AM 70.2 °F - 68.9 °F 96% 29.97 in 7.0 mi Calm Calm - N/A   Clear
1:55 AM 70.3 °F - 68.9 °F 95% 29.96 in 7.0 mi SSE 4.6 mph - N/A   Clear
2:15 AM 70.7 °F - 69.3 °F 95% 29.96 in 7.0 mi SSE 3.5 mph - N/A   Clear
2:35 AM 70.2 °F - 69.3 °F 97% 29.96 in 5.0 mi SSE 4.6 mph - N/A   Clear
2:55 AM 69.8 °F - 69.1 °F 98% 29.96 in 5.0 mi SSE 4.6 mph - N/A   Clear
3:15 AM 69.4 °F - 68.9 °F 98% 29.96 in 4.0 mi SSE 3.5 mph - N/A   Clear
3:35 AM 69.6 °F - 69.1 °F 98% 29.96 in 3.0 mi SSE 3.5 mph - N/A   Overcast
3:55 AM 69.8 °F - 69.3 °F 98% 29.96 in 3.0 mi Calm Calm - N/A   Overcast
4:15 AM 70.2 °F - 70.0 °F 99% 29.95 in 2.0 mi South 4.6 mph - N/A   Overcast
4:35 AM 70.2 °F - 70.0 °F 99% 29.95 in 0.8 mi South 5.8 mph - N/A   Overcast
4:55 AM 70.0 °F - 69.8 °F 99% 29.95 in 0.2 mi South 5.8 mph - N/A Fog Fog
5:15 AM 70.0 °F - 69.8 °F 99% 29.95 in 0.2 mi South 5.8 mph - N/A Fog Fog
5:35 AM 69.4 °F - 69.4 °F 100% 29.95 in 0.2 mi South 8.1 mph - N/A Fog Fog
5:55 AM 69.1 °F - 69.1 °F 100% 29.96 in 0.5 mi South 9.2 mph - N/A Fog Fog
6:15 AM 68.9 °F - 68.9 °F 100% 29.96 in 1.0 mi South 10.4 mph - N/A   Overcast
6:35 AM 68.9 °F - 68.9 °F 100% 29.98 in 1.8 mi South 6.9 mph - N/A   Overcast
6:55 AM 68.7 °F - 68.7 °F 100% 30.00 in 1.5 mi South 5.8 mph - N/A   Overcast
7:15 AM 68.9 °F - 68.9 °F 100% 30.00 in 1.5 mi SSE 4.6 mph - N/A   Overcast
7:35 AM 68.9 °F - 68.9 °F 100% 30.01 in 2.5 mi SSE 5.8 mph - N/A   Overcast
7:55 AM 68.9 °F - 68.9 °F 100% 30.02 in 2.0 mi SSE 4.6 mph - N/A   Overcast
8:15 AM 69.1 °F - 69.1 °F 100% 30.02 in 2.5 mi South 5.8 mph - N/A   Overcast
8:35 AM 69.8 °F - 69.8 °F 100% 30.02 in 4.0 mi SSE 8.1 mph - N/A   Overcast
8:55 AM 70.5 °F - 70.2 °F 99% 30.02 in 5.0 mi South 9.2 mph - N/A   Overcast
9:15 AM 71.4 °F - 69.8 °F 95% 30.02 in 7.0 mi SE 8.1 mph - N/A   Overcast
9:35 AM 72.9 °F - 69.3 °F 88% 30.03 in 10.0 mi South 9.2 mph - N/A   Overcast
9:55 AM 73.4 °F - 68.5 °F 85% 30.04 in 10.0 mi South 9.2 mph - N/A   Overcast
10:15 AM 73.9 °F - 68.9 °F 84% 30.04 in 10.0 mi SSE 11.5 mph - N/A   Mostly Cloudy
10:35 AM 75.6 °F - 68.7 °F 79% 30.05 in 10.0 mi South 9.2 mph - N/A   Scattered Clouds
10:55 AM 76.6 °F - 68.9 °F 77% 30.06 in 10.0 mi SE 8.1 mph - N/A   Scattered Clouds
11:15 AM 78.8 °F - 69.4 °F 73% 30.07 in 10.0 mi SSE 8.1 mph - N/A   Scattered Clouds
11:35 AM 77.4 °F - 68.9 °F 75% 30.09 in 10.0 mi Calm Calm - N/A   Mostly Cloudy
11:55 AM 78.1 °F - 68.5 °F 72% 30.09 in 10.0 mi Calm Calm - N/A   Overcast
12:15 PM 79.3 °F - 69.4 °F 72% 30.09 in 10.0 mi SE 4.6 mph - N/A   Overcast
12:35 PM 79.0 °F - 68.4 °F 70% 30.09 in 10.0 mi ESE 4.6 mph - N/A   Overcast
12:55 PM 79.7 °F - 70.0 °F 72% 30.10 in 10.0 mi NE 4.6 mph - N/A   Overcast
1:15 PM 80.1 °F 83.2 °F 69.8 °F 71% 30.08 in 10.0 mi ESE 3.5 mph - N/A   Overcast
1:35 PM 80.8 °F 83.8 °F 68.7 °F 67% 30.09 in 10.0 mi Calm Calm - N/A   Overcast
1:55 PM 80.6 °F 83.5 °F 68.9 °F 67% 30.08 in 10.0 mi Calm Calm - N/A   Overcast
2:15 PM 81.3 °F 84.5 °F 68.9 °F 66% 30.07 in 10.0 mi ENE 3.5 mph - N/A   Overcast
2:35 PM 81.0 °F 84.4 °F 69.8 °F 69% 30.07 in 7.0 mi ENE 4.6 mph - N/A   Overcast
2:55 PM 82.4 °F 85.8 °F 69.3 °F 64% 30.06 in 10.0 mi ENE 4.6 mph - N/A   Mostly Cloudy
3:15 PM 83.3 °F 87.1 °F 69.4 °F 63% 30.06 in 10.0 mi East 5.8 mph - N/A   Mostly Cloudy
3:35 PM 82.8 °F 86.4 °F 69.4 °F 64% 30.05 in 10.0 mi East 8.1 mph - N/A   Mostly Cloudy
3:55 PM 83.8 °F 87.5 °F 69.1 °F 61% 30.04 in 10.0 mi East 4.6 mph - N/A   Scattered Clouds
4:15 PM 84.4 °F 88.2 °F 68.9 °F 60% 30.03 in 10.0 mi East 5.8 mph - N/A   Clear
4:35 PM 84.6 °F 87.1 °F 66.9 °F 55% 30.03 in 10.0 mi East 4.6 mph - N/A   Clear
4:55 PM 85.1 °F 87.9 °F 67.5 °F 55% 30.01 in 10.0 mi East 6.9 mph - N/A   Clear
5:15 PM 85.5 °F 88.5 °F 67.8 °F 55% 30.01 in 10.0 mi East 5.8 mph - N/A   Clear
5:35 PM 84.2 °F 86.6 °F 66.4 °F 55% 30.00 in 10.0 mi ESE 4.6 mph - N/A   Clear
5:55 PM 85.3 °F 88.2 °F 67.5 °F 55% 29.99 in 10.0 mi East 5.8 mph - N/A   Clear
6:15 PM 84.7 °F 87.4 °F 66.9 °F 55% 30.00 in 10.0 mi ESE 4.6 mph - N/A   Clear
6:35 PM 84.4 °F 87.3 °F 67.5 °F 57% 30.00 in 10.0 mi East 6.9 mph - N/A   Scattered Clouds
6:55 PM 83.3 °F 85.9 °F 67.1 °F 58% 30.00 in 10.0 mi East 4.6 mph - N/A   Clear
7:15 PM 82.9 °F 86.0 °F 68.2 °F 61% 30.00 in 10.0 mi East 4.6 mph - N/A   Clear
7:35 PM 81.1 °F 84.2 °F 68.9 °F 66% 30.01 in 10.0 mi Calm Calm - N/A   Clear
7:55 PM 79.7 °F - 69.4 °F 71% 30.01 in 10.0 mi East 3.5 mph - N/A   Clear
8:15 PM 79.0 °F - 69.4 °F 72% 30.01 in 10.0 mi Calm Calm - N/A   Clear
8:35 PM 78.4 °F - 69.8 °F 75% 30.03 in 10.0 mi Calm Calm - N/A   Clear
8:55 PM 77.9 °F - 69.8 °F 76% 30.03 in 10.0 mi ENE 3.5 mph - N/A   Clear
9:15 PM 77.5 °F - 69.8 °F 77% 30.04 in 10.0 mi ENE 3.5 mph - N/A   Clear
9:35 PM 77.0 °F - 70.2 °F 79% 30.05 in 10.0 mi Calm Calm - N/A   Clear
9:55 PM 77.0 °F - 70.0 °F 79% 30.06 in 10.0 mi Calm Calm - N/A   Clear
10:15 PM 77.0 °F - 70.2 °F 79% 30.07 in 10.0 mi Calm Calm - N/A   Clear
10:35 PM 77.2 °F - 69.3 °F 76% 30.08 in 10.0 mi East 4.6 mph - N/A   Clear
10:55 PM 76.5 °F - 69.1 °F 78% 30.10 in 10.0 mi Calm Calm - N/A   Clear
11:15 PM 76.5 °F - 69.1 °F 78% 30.10 in 10.0 mi SE 3.5 mph - N/A   Clear
11:35 PM 76.1 °F - 67.6 °F 75% 30.10 in 10.0 mi ESE 3.5 mph - N/A   Clear
11:55 PM 76.5 °F - 65.1 °F 68% 30.08 in 10.0 mi SE 4.6 mph - N/A   Clear